This is the latest recevied weather packets stored in our database for station/object W0RMT-13. If no packets are shown the sender has not sent any weather packets the latest 10 day(s).
| Time | Temp. | Humidity | Pressure | Rain* | Wind** | Luminosity | Snow |
|---|---|---|---|---|---|---|---|
| 1777804774 | 10° C | 39% | 1015.8 hPa | 0 mm | - | 0 W/m² | - |
| 1777804155 | 9.44° C | 38% | 1015.8 hPa | 0 mm | - | 0 W/m² | - |
| 1777803546 | 9.44° C | 38% | 1015.8 hPa | 0 mm | - | 0 W/m² | - |
| 1777802870 | 9.44° C | 43% | 1015.4 hPa | 0 mm | - | 0 W/m² | - |
| 1777802185 | 9.44° C | 42% | 1015.8 hPa | 0 mm | - | 0 W/m² | - |
| 1777801548 | 9.44° C | 41% | 1015.4 hPa | 0 mm | - | 0 W/m² | - |
| 1777800948 | 9.44° C | 40% | 1015.8 hPa | 0 mm | - | 0 W/m² | - |
| 1777800256 | 8.89° C | 39% | 1015.8 hPa | 0 mm | - | 0 W/m² | - |
| 1777799608 | 8.33° C | 40% | 1015.8 hPa | 0 mm | - | 0 W/m² | - |
| 1777798954 | 8.33° C | 43% | 1015.8 hPa | 0 mm | - | 0 W/m² | - |
| 1777798335 | 8.33° C | 45% | 1015.8 hPa | 0 mm | - | 0 W/m² | - |
| 1777797703 | 8.89° C | 43% | 1016.2 hPa | 0 mm | - | 0 W/m² | - |
| 1777797012 | 9.44° C | 42% | 1016.2 hPa | 0 mm | - | 0 W/m² | - |
| 1777796391 | 10° C | 40% | 1016.2 hPa | 0 mm | - | 0 W/m² | - |
| 1777795774 | 10° C | 38% | 1016.2 hPa | 0 mm | - | 0 W/m² | - |
| 1777795165 | 10° C | 35% | 1016.7 hPa | 0 mm | - | 0 W/m² | - |
| 1777794510 | 10° C | 34% | 1016.2 hPa | 0 mm | - | 0 W/m² | - |
| 1777793867 | 9.44° C | 33% | 1016.2 hPa | 0 mm | - | 0 W/m² | - |
| 1777793236 | 8.89° C | 34% | 1016.7 hPa | 0 mm | - | 0 W/m² | - |
| 1777792551 | 8.89° C | 34% | 1016.7 hPa | 0 mm | - | 0 W/m² | - |
| 1777791934 | 9.44° C | 33% | 1016.7 hPa | 0 mm | - | 0 W/m² | - |
| 1777791268 | 10° C | 32% | 1017 hPa | 0 mm | - | 0 W/m² | - |
| 1777790639 | 10° C | 30% | 1016.7 hPa | 0 mm | - | 0 W/m² | - |
| 1777789991 | 9.44° C | 28% | 1016.7 hPa | 0 mm | - | 0 W/m² | - |
| 1777789375 | 8.89° C | 29% | 1016.7 hPa | 0 mm | - | 0 W/m² | - |
* Rain latest hour (hover to see other rain measurements)
** Current wind speed in m/s (hover to see current wind gust speed)